Location: Ajisawe
(8.4333°N, 4.3833°E)
Time: 01:40:41
(UTC+00:00)

Courier 1B Rocket - Pass Details

Date: 24 April 2021
Orbit: 920 x 1202 km, 28.3° (Epoch: 13 May)

Event Time Altitude Azimuth Distance (km) Brightness Sun altitude
Rises 14:44:25 0° 245° (WSW) 3,574 8.5 44.7°
Reaches altitude 10° 14:47:03 10° 247° (WSW) 2,614 8.1 44.0°
Maximum altitude 14:53:16 73° 331° (NNW) 954 6.0 42.5°
Drops below altitude 10° 14:59:33 10° 56° (ENE) 2,628 7.0 41.0°
Sets 15:02:12 0° 59° (ENE) 3,594 7.6 40.3°
